TimeHST,TemperatureF,Dew PointF,Humidity,Sea Level PressureIn,VisibilityMPH,Wind Direction,Wind SpeedMPH,Gust SpeedMPH,PrecipitationIn,Events,Conditions,WindDirDegrees,DateUTC
12:53 AM,73.0,66.0,79,29.94,10.0,South,8.1,-,N/A,,Scattered Clouds,170,2013-03-09 10:53:00
1:53 AM,73.0,66.9,81,29.92,10.0,South,5.8,-,N/A,,Partly Cloudy,190,2013-03-09 11:53:00
2:53 AM,73.9,64.9,73,29.89,10.0,South,9.2,-,N/A,,Partly Cloudy,190,2013-03-09 12:53:00
3:53 AM,73.9,66.0,76,29.87,10.0,SSW,8.1,-,N/A,,Scattered Clouds,210,2013-03-09 13:53:00
4:53 AM,75.0,66.0,73,29.87,10.0,SSW,11.5,-,N/A,,Overcast,200,2013-03-09 14:53:00
5:53 AM,73.9,64.9,73,29.88,10.0,SW,9.2,-,N/A,,Scattered Clouds,220,2013-03-09 15:53:00
6:53 AM,73.9,66.0,76,29.91,10.0,SSW,11.5,-,N/A,,Scattered Clouds,210,2013-03-09 16:53:00
7:53 AM,75.0,64.9,71,29.93,10.0,SW,12.7,-,N/A,,Scattered Clouds,220,2013-03-09 17:53:00
8:53 AM,75.9,66.9,74,29.94,10.0,SSW,11.5,-,N/A,,Mostly Cloudy,210,2013-03-09 18:53:00
9:53 AM,77.0,68.0,74,29.95,10.0,SW,13.8,-,N/A,,Scattered Clouds,220,2013-03-09 19:53:00
10:53 AM,80.1,66.9,64,29.95,10.0,SSW,13.8,-,N/A,,Scattered Clouds,210,2013-03-09 20:53:00
11:53 AM,81.0,68.0,65,29.93,10.0,SSW,13.8,21.9,N/A,,Scattered Clouds,210,2013-03-09 21:53:00
12:53 PM,80.1,66.9,64,29.90,10.0,SSW,13.8,-,N/A,,Scattered Clouds,210,2013-03-09 22:53:00
1:53 PM,80.1,68.0,67,29.88,10.0,SSW,13.8,-,N/A,,Mostly Cloudy,200,2013-03-09 23:53:00
2:53 PM,79.0,69.1,72,29.87,10.0,SSW,13.8,-,N/A,,Mostly Cloudy,200,2013-03-10 00:53:00
3:53 PM,77.0,68.0,74,29.87,10.0,SSW,16.1,-,N/A,,Mostly Cloudy,200,2013-03-10 01:53:00
4:53 PM,73.0,68.0,84,29.88,4.0,SW,19.6,23.0,0.01,Rain,Heavy Rain,230,2013-03-10 02:53:00
4:58 PM,71.6,64.4,78,29.88,2.5,WSW,15.0,23.0,0.04,Rain,Heavy Rain,240,2013-03-10 02:58:00
5:00 PM,71.6,64.4,78,29.88,1.8,WSW,12.7,23.0,0.06,Rain,Heavy Rain,250,2013-03-10 03:00:00
5:09 PM,69.8,62.6,78,29.88,5.0,West,3.5,-,0.21,Rain,Light Rain,260,2013-03-10 03:09:00
5:53 PM,75.0,69.1,82,29.89,10.0,SSW,8.1,-,0.21,,Mostly Cloudy,210,2013-03-10 03:53:00
6:00 PM,75.2,69.8,83,29.89,10.0,SSW,10.4,-,N/A,,Scattered Clouds,210,2013-03-10 04:00:00
6:53 PM,73.9,68.0,82,29.89,10.0,SSW,12.7,-,0.00,,Mostly Cloudy,200,2013-03-10 04:53:00
7:53 PM,73.9,69.1,85,29.90,10.0,South,9.2,-,N/A,,Mostly Cloudy,180,2013-03-10 05:53:00
8:53 PM,73.9,69.1,85,29.91,10.0,South,8.1,-,N/A,,Mostly Cloudy,190,2013-03-10 06:53:00
9:53 PM,73.9,69.1,85,29.93,10.0,South,9.2,-,0.02,,Mostly Cloudy,190,2013-03-10 07:53:00
10:15 PM,69.8,68.0,94,29.93,10.0,WNW,8.1,23.0,0.00,Rain,Light Rain,300,2013-03-10 08:15:00
10:53 PM,70.0,66.9,90,29.95,10.0,West,12.7,21.9,0.01,Rain,Light Rain,280,2013-03-10 08:53:00
11:49 PM,68.0,66.2,94,29.94,2.0,WNW,12.7,-,0.13,Rain,Heavy Rain,300,2013-03-10 09:49:00
11:53 PM,68.0,66.9,96,29.94,2.0,WNW,9.2,-,0.24,Rain,Heavy Rain,300,2013-03-10 09:53:00